Regional Weather Roundup
Issued by NWS

Home | Current Version | Previous Version | Text Only | Print | Product List | Glossary Off
Versions: 1 2 3 4 5 6 7 8 9 10 11 12 13 14 15 16 17 18 19 20 21 22 23 24 25 26 27 28 29 30 31 32 33 34 35 36 37 38 39 40 41 42 43 44 45 46 47 48 49 50

000
ASUS43 KFSD 151010
RWRSD

WEATHER ROUNDUP FOR SOUTH DAKOTA
NATIONAL WEATHER SERVICE SIOUX FALLS SD
500 AM CDT MON SEP 15 2014

NOTE: "FAIR" INDICATES FEW OR NO CLOUDS BELOW 12,000 FEET WITH NO
SIGNIFICANT WEATHER AND/OR OBSTRUCTIONS TO VISIBILITY.


SDZ001>005-009-010-012>017-151100-
NORTHWEST AND NORTH CENTRAL SOUTH DAKOTA

CITY           SKY/WX    TMP DP  RH WIND       PRES   REMARKS
BUFFALO          N/A     38  36  92 SW5       30.19S
FAITH            N/A     42  36  79 MISG      30.25R
MOBRIDGE       CLEAR     40  39  97 N6        30.22R
$$

SDZ012>016-024>037-041>051-057-063-072>074-151100-
SOUTHWEST AND SOUTH CENTRAL SOUTH DAKOTA

CITY           SKY/WX    TMP DP  RH WIND       PRES   REMARKS
RAPID CTY ARPT CLEAR     37  34  89 CALM      30.26S
PIERRE         CLEAR     43  38  82 N5        30.23R
CUSTER         CLEAR     39  36  89 NW3       30.27R
ELLSWORTH AFB  CLEAR     39  36  89 W3        30.26R
PHILIP         CLEAR     37  35  92 W5        30.27R
PINE RIDGE     CLEAR     32  31  96 CALM      30.26S
WINNER         CLOUDY    50  45  83 NW7       30.23R
$$

SDZ004>011-016>023-039-040-151100-
NORTHEAST SOUTH DAKOTA

CITY           SKY/WX    TMP DP  RH WIND       PRES   REMARKS
ABERDEEN       PTCLDY    41  41 100 NW5       30.22R
WATERTOWN      LGT RAIN  45  43  93 SW3       30.18F
SISSETON         N/A     45  43  93 N5        30.19R
$$

SDZ017-020-022-023-036>040-048>070-151100-
SOUTHEAST SOUTH DAKOTA

CITY           SKY/WX    TMP DP  RH WIND       PRES   REMARKS
SIOUX FALLS    LGT RAIN  49  47  93 N7        30.19R
HURON          CLOUDY    48  44  86 CALM      30.21S
CHAMBERLAIN    CLOUDY    50  41  73 N6        30.23R
MITCHELL       CLOUDY    49  47  93 N5        30.22R
YANKTON        CLOUDY    48  46  93 N15       30.19R
$$

ABBREVIATIONS USED IN REMARKS
   TC - TEMPERATURE IN CELSIUS
  WCI - WIND CHILL INDEX
   HX - HEAT INDEX
  VSB - VISIBILITY




USA.gov is the U.S. government's official web portal to all federal, state and local government web resources and services.